TimeEEST,TemperatureF,Dew PointF,Humidity,Sea Level PressureIn,VisibilityMPH,Wind Direction,Wind SpeedMPH,Gust SpeedMPH,PrecipitationIn,Events,Conditions,WindDirDegrees,DateUTC
12:50 AM,66.2,46.4,49,29.89,6.2,WNW,5.8,-,N/A,,Partly Cloudy,290,2013-09-15 21:50:00
1:50 AM,66.2,46.4,49,29.89,6.2,NNW,6.9,-,N/A,,Partly Cloudy,340,2013-09-15 22:50:00
2:50 AM,64.4,48.2,56,29.89,-9999.0,West,9.2,-,N/A,,Clear,280,2013-09-15 23:50:00
3:50 AM,64.4,48.2,56,29.89,-9999.0,West,6.9,-,N/A,,Clear,280,2013-09-16 00:50:00
4:50 AM,62.6,48.2,59,29.89,-9999.0,WNW,6.9,-,N/A,,Clear,300,2013-09-16 01:50:00
5:50 AM,60.8,48.2,63,29.89,-9999.0,NW,8.1,-,N/A,,Clear,310,2013-09-16 02:50:00
6:50 AM,60.8,46.4,59,29.92,6.2,NW,10.4,-,N/A,,Partly Cloudy,310,2013-09-16 03:50:00
7:50 AM,64.4,46.4,52,29.92,6.2,WNW,8.1,-,N/A,,Partly Cloudy,300,2013-09-16 04:50:00
8:50 AM,68.0,46.4,46,29.92,6.2,NW,3.5,-,N/A,,Partly Cloudy,310,2013-09-16 05:50:00
9:00 AM,67,47,37,,9,NW,3.5,,,,Scattered Clouds,310,2013-09-16 06:00:00
9:50 AM,69.8,41.0,35,29.92,6.2,WNW,5.8,-,N/A,,Partly Cloudy,300,2013-09-16 06:50:00
10:50 AM,71.6,39.2,31,29.92,6.2,Variable,3.5,-,N/A,,Partly Cloudy,0,2013-09-16 07:50:00
11:50 AM,75.2,32.0,21,29.89,6.2,Variable,4.6,-,N/A,,Partly Cloudy,0,2013-09-16 08:50:00
12:50 PM,77.0,30.2,18,29.86,6.2,Variable,3.5,-,N/A,,Partly Cloudy,0,2013-09-16 09:50:00
1:50 PM,78.8,37.4,23,29.86,6.2,Variable,2.3,-,N/A,,Partly Cloudy,0,2013-09-16 10:50:00
2:50 PM,80.6,30.2,16,29.83,6.2,WNW,5.8,-,N/A,,Partly Cloudy,290,2013-09-16 11:50:00
3:00 PM,81,29,8,,6,WNW,5.8,,,,Scattered Clouds,290,2013-09-16 12:00:00
3:50 PM,80.6,30.2,16,29.83,6.2,WSW,6.9,-,N/A,,Partly Cloudy,250,2013-09-16 12:50:00
4:50 PM,80.6,30.2,16,29.80,6.2,WSW,11.5,-,N/A,,Partly Cloudy,250,2013-09-16 13:50:00
5:50 PM,77.0,23.0,13,29.83,-9999.0,West,10.4,-,N/A,,Clear,260,2013-09-16 14:50:00
6:50 PM,75.2,17.6,11,29.83,-9999.0,West,10.4,-,N/A,,Clear,270,2013-09-16 15:50:00
7:50 PM,73.4,19.4,13,29.86,-9999.0,WNW,5.8,-,N/A,,Clear,300,2013-09-16 16:50:00
8:50 PM,66.2,23.0,19,29.86,-9999.0,North,2.3,-,N/A,,Clear,350,2013-09-16 17:50:00
9:50 PM,64.4,24.8,22,29.86,-9999.0,Calm,Calm,-,N/A,,Clear,0,2013-09-16 18:50:00
10:50 PM,57.2,28.4,33,29.86,-9999.0,Calm,Calm,-,N/A,,Clear,0,2013-09-16 19:50:00
11:50 PM,53.6,32.0,44,29.86,-9999.0,Calm,Calm,-,N/A,,Clear,0,2013-09-16 20:50:00